Weather History for Memphis, TN

Change the Weather History Date:

Sunday, December 9, 2012

  Actual Average Record
Temperature  
Mean Temperature 64 °F 45 °F  
Max Temperature 70 °F 53 °F 77 °F (2007)
Min Temperature 58 °F 36 °F 2 °F (1917)
Degree Days  
Heating Degree Days 1 20  
Month to date heating degree days 26 172  
Since 1 July heating degree days 583 671  
Cooling Degree Days 0 0  
Month to date cooling degree days 4 0  
Year to date cooling degree days 2617 2256  
Growing Degree Days 14 (Base 50)    
Moisture  
Dew Point 61 °F    
Average Humidity 87    
Maximum Humidity 97    
Minimum Humidity 76    
Precipitation  
Precipitation 0.68 in 0.20 in 3.48 in (2008)
Month to date precipitation 1.12 1.77  
Year to date precipitation 34.29 49.71  
Snow  
Snow 0.00 in 0.00 in 0.80 in (1901)
Month to date snowfall 0.0 0.0  
Since 1 July snowfall 0.0 T  
Snow Depth 0.00 in    
Sea Level Pressure  
Sea Level Pressure 29.84 in    
Wind  
Wind Speed 11 mph (SW)    
Max Wind Speed 22 mph    
Max Gust Speed 29 mph    
Visibility 8 miles    
Events Rain , Thunderstorm    
T = Trace of Precipitation, MM = Missing Value Source: NWS Daily Summary

Daily Weather History Graph

Daily Weather History Graph

Search for Another Location

Airport:

Trip Planner

Search our weather history database for the weather conditions in past years. The results will help you decide how hot, cold, wet, or windy it might be!

Date:

Astronomy

Dec. 09, 2012 Rise Set
Actual Time 6:56 AM CST 4:48 PM CST
Civil Twilight 6:28 AM CST 5:16 PM CST
Nautical Twilight 5:57 AM CST 5:47 PM CST
Astronomical Twilight 5:26 AM CST 6:18 PM CST
Moon 2:36 AM CST (12/9) 1:49 PM CST (12/9)
Length of Visible Light 10h 47m
Length of Day
9h 51m
Waning Crescent, 18% of the Moon is Illuminated
Dec 9
Waning Crescent
Dec 13
New
Dec 19
First Quarter
Dec 28
Full
Jan 4
Last Quarter

Hourly Weather History & Observations

Time (CST) Temp. Dew Point Humidity Pressure Visibility Wind Dir Wind Speed Gust Speed Precip Events Conditions
12:43 AM 62.6 °F 60.8 °F 94% 29.89 in 8.0 mi South 6.9 mph - N/A   Overcast
12:54 AM 62.1 °F 60.1 °F 93% 29.88 in 9.0 mi South 9.2 mph - N/A   Overcast
1:34 AM 62.6 °F 60.8 °F 94% 29.88 in 10.0 mi South 10.4 mph - N/A   Mostly Cloudy
1:54 AM 62.1 °F 59.0 °F 90% 29.87 in 10.0 mi South 10.4 mph - N/A   Overcast
2:54 AM 63.0 °F 60.1 °F 90% 29.86 in 10.0 mi South 9.2 mph - N/A   Overcast
3:00 AM 62.6 °F 60.8 °F 94% 29.86 in 10.0 mi South 10.4 mph - N/A   Overcast
3:54 AM 64.0 °F 60.1 °F 87% 29.86 in 10.0 mi South 9.2 mph - N/A   Overcast
4:23 AM 64.4 °F 60.8 °F 88% 29.87 in 10.0 mi South 11.5 mph - N/A   Overcast
4:54 AM 64.9 °F 60.1 °F 84% 29.86 in 10.0 mi SSW 11.5 mph - N/A   Overcast
5:04 AM 64.4 °F 60.8 °F 88% 29.86 in 10.0 mi SSW 12.7 mph - N/A   Overcast
5:54 AM 66.0 °F 60.1 °F 81% 29.87 in 10.0 mi SSW 10.4 mph - N/A   Overcast
6:08 AM 66.2 °F 60.8 °F 83% 29.89 in 8.0 mi SW 13.8 mph 21.9 mph N/A   Overcast
6:23 AM 64.4 °F 60.8 °F 88% 29.90 in 7.0 mi WSW 10.4 mph - 0.02 in Rain Rain
6:54 AM 64.0 °F 61.0 °F 90% 29.89 in 9.0 mi SW 11.5 mph - 0.12 in Rain Light Rain
7:05 AM 64.4 °F 60.8 °F 88% 29.90 in 6.0 mi SSW 8.1 mph - 0.02 in Rain Heavy Rain
7:31 AM 64.4 °F 60.8 °F 88% 29.91 in 5.0 mi WSW 6.9 mph - 0.06 in Rain Light Rain
7:36 AM 64.4 °F 60.8 °F 88% 29.91 in 5.0 mi SSW 6.9 mph - 0.10 in Rain Heavy Rain
7:44 AM 64.4 °F 60.8 °F 88% 29.91 in 6.0 mi South 10.4 mph - 0.16 in Rain Light Rain
7:51 AM 64.4 °F 60.8 °F 88% 29.90 in 7.0 mi South 13.8 mph - 0.16 in Rain Light Rain
7:54 AM 64.0 °F 61.0 °F 90% 29.90 in 7.0 mi South 12.7 mph - 0.16 in Rain Light Rain
8:21 AM 64.4 °F 60.8 °F 88% 29.90 in 8.0 mi SSW 15.0 mph - 0.00 in   Overcast
8:54 AM 64.0 °F 62.1 °F 93% 29.90 in 6.0 mi SSW 9.2 mph - 0.00 in   Overcast
9:54 AM 66.0 °F 60.1 °F 81% 29.91 in 10.0 mi SW 10.4 mph 20.7 mph N/A   Overcast
10:54 AM 66.9 °F 59.0 °F 76% 29.89 in 10.0 mi SSW 10.4 mph 20.7 mph N/A   Overcast
11:54 AM 68.0 °F 60.1 °F 76% 29.86 in 10.0 mi SSW 16.1 mph 21.9 mph N/A   Overcast
12:54 PM 68.0 °F 61.0 °F 78% 29.84 in 10.0 mi SW 10.4 mph 16.1 mph N/A   Overcast
1:54 PM 70.0 °F 62.1 °F 76% 29.82 in 10.0 mi South 12.7 mph 20.7 mph N/A   Overcast
2:30 PM 69.8 °F 62.6 °F 78% 29.82 in 10.0 mi South 9.2 mph - N/A   Overcast
2:36 PM 69.8 °F 62.6 °F 78% 29.81 in 10.0 mi South 12.7 mph - N/A   Overcast
2:54 PM 70.0 °F 62.1 °F 76% 29.81 in 10.0 mi SSW 9.2 mph - N/A   Mostly Cloudy
3:21 PM 69.8 °F 62.6 °F 78% 29.80 in 6.0 mi SW 8.1 mph - 0.00 in Rain , Thunderstorm Light Thunderstorms and Rain
3:54 PM 69.1 °F 64.0 °F 84% 29.79 in 7.0 mi SW 8.1 mph - 0.02 in Thunderstorm Thunderstorm
4:16 PM 69.8 °F 64.4 °F 83% 29.80 in 10.0 mi SW 10.4 mph - 0.00 in Rain Light Rain
4:54 PM 69.1 °F 63.0 °F 81% 29.78 in 10.0 mi SSW 12.7 mph 24.2 mph 0.02 in   Overcast
5:54 PM 69.1 °F 63.0 °F 81% 29.78 in 10.0 mi SSW 11.5 mph - N/A   Overcast
6:40 PM 69.8 °F 64.4 °F 83% 29.79 in 10.0 mi SSW 15.0 mph 19.6 mph N/A   Overcast
6:54 PM 69.1 °F 64.0 °F 84% 29.78 in 10.0 mi South 13.8 mph - N/A   Overcast
7:54 PM 69.1 °F 63.0 °F 81% 29.79 in 10.0 mi SSW 9.2 mph 18.4 mph N/A   Overcast
8:54 PM 69.1 °F 63.0 °F 81% 29.77 in 10.0 mi SSW 10.4 mph 18.4 mph 0.00 in Rain Light Rain
9:21 PM 69.8 °F 62.6 °F 78% 29.78 in 10.0 mi SW 8.1 mph - 0.00 in Thunderstorm Thunderstorm
9:43 PM 62.6 °F 57.2 °F 82% 29.80 in 2.5 mi NW 18.4 mph 25.3 mph 0.04 in Rain , Thunderstorm Heavy Thunderstorms and Rain
9:51 PM 60.8 °F 57.2 °F 88% 29.80 in 1.0 mi WNW 9.2 mph 25.3 mph 0.17 in Rain , Thunderstorm Heavy Thunderstorms and Rain
9:54 PM 61.0 °F 57.9 °F 90% 29.80 in 1.2 mi WNW 9.2 mph - 0.19 in Rain , Thunderstorm Heavy Thunderstorms and Rain
10:01 PM 60.8 °F 57.2 °F 88% 29.79 in 1.2 mi WNW 10.4 mph - 0.09 in Rain , Thunderstorm Heavy Thunderstorms and Rain
10:08 PM 60.8 °F 57.2 °F 88% 29.78 in 2.0 mi NW 5.8 mph - 0.13 in Rain , Thunderstorm Heavy Thunderstorms and Rain
10:21 PM 60.8 °F 57.2 °F 88% 29.78 in 3.0 mi WNW 4.6 mph - 0.17 in Rain , Thunderstorm Thunderstorms and Rain
10:48 PM 60.8 °F 57.2 °F 88% 29.79 in 10.0 mi West 8.1 mph - 0.17 in Rain Light Rain
10:54 PM 61.0 °F 57.9 °F 90% 29.79 in 10.0 mi WNW 9.2 mph - 0.17 in   Overcast
11:01 PM 60.8 °F 59.0 °F 94% 29.80 in 10.0 mi WNW 12.7 mph - N/A   Overcast
11:13 PM 59.0 °F 57.2 °F 94% 29.81 in 2.0 mi WNW 11.5 mph - N/A   Overcast
11:54 PM 57.9 °F 55.9 °F 93% 29.82 in 2.0 mi WNW 9.2 mph 18.4 mph 0.00 in Rain , Thunderstorm Light Thunderstorms and Rain